sat.trackr.live / text

‹ back to catalog

STARLINK-34724

NORAD 66442 · 2025-259W

PAYLOAD ACTIVE UNKNOWN

§ Identity

Operator
Country
US
Launch date
2025-11-11
Launch site
AFETR
Launch vehicle
Mass (kg)
RCS (m²)

Purposes: comms

External: N2YO · Heavens-Above · Gunter

§ Orbital elements

Epoch: 2026-05-25T04:12:03.480192Z

Period
94.27 min
Inclination
42.9994°
Eccentricity
0.0001477
Mean motion
15.27590886 rev/d
Perigee alt
482.0 km
Apogee alt
484.0 km
Semi-major
6,861.2 km
B*
5.5089e-4
RAAN
202.8327°
Arg perigee
280.2105°
Mean anomaly
79.8580°
Rev number
3,118

§ Raw data

STARLINK-347241 66442U 25259W   26145.17504028  .00014933  00000+0  55089-3 0  99992 66442  42.9994 202.8327 0001477 280.2105  79.8580 15.27590886 31183

JSON: /api/v1/satellites/66442 · /tle

For live sub-satellite position, see the globe view (requires WebGL).

§ Visibility from observer

Set your observer location to see the next 7 days of passes ≥ 10°. The values pass through the URL so the page stays shareable.

No JS? Fill the form by hand. The geolocation button needs JavaScript.